STARLINK-30580, 58115

Orbit data source: Space-Track

STARLINK-30580, 58115 is a payload satellite owned by SpaceX/Seattle (US) in LEO that was launched on Sat, 21 Oct 2023 UTC via an FALCON 9 launch vehicle from the Air Force Western Test Range (AFWTR). Payload-class satellites include a variety of spacecraft equipped with specific instruments for various scientific and technological missions. These include communications satellites like Starlink; space stations such as the ISS; scientific satellites like the Hubble; Earth observation satellites from companies like Planet Labs, Umbra, and HawkEye 360; GPS; miniature CubeSats for education and research; and military/defense satellites.

Loading next visibility...
Identifier
58115, 2023-161U
Orbit
LEO
Country
Flag of USUS
Related business
Manufacturer
SpaceX/Seattle
Mission
Operational Commercial Communications
Bus & Motor
STARLINK V2M, Unknown motor
Mass
730 kg wet, ~700 kg dry
Launch date (UTC)
2023-10-21 (3 years ago)
Launch vehicle
FALCON 9
Launch site
Air Force Western Test Range (AFWTR)
Object type
Payload
Rocket body
Debris
Shape & HBR
Box + 2 Pan, 17.7 m
Radar Cross Section
33.884 m², Large (>1 m²)

Expand to show TLE details & history
Last TLE update: 2 days ago

TLE from 2 days ago
0 STARLINK-30580
1 58115U 23161U   26171.35785441  .00003517  00000-0  13083-3 0  9991
2 58115  53.1607  48.4109 0001509  86.6325 273.4848 15.30193978150137
Epoch: 2026-06-20T08:35Z
TLE epoch observation values (Epoch: 2026-06-20T08:35:18.621Z)
Latitude
-0.00003°
Longitude
11.00966°
Altitude
476.07 km
Speed
7.629 km/s
True Right ascension
03h 13m 38s
True Declination
0° 00' 00"
Sunlit
Object was in daylight at epoch
Visualization orbit readout
Latitude
Unknown
Longitude
Unknown
Altitude
Unknown
Speed
Unknown
Apparent Right ascension
Unknown
Apparent Declination
Unknown
Sunlit
N/A
Visualization observer readout
Local Sidereal Time
21:26:34
Azimuth
Unknown
Elevation
Unknown
Doppler factor
Unknown
Orbital elements
Apogee altitude
476.524 km
Perigee altitude
474.455 km
Semi-major axis
6,853.626 km
Eccentricity
0.00015
Inclination
53.1607°
RAAN
48.4109°
Arg. of periapsis
86.6325°
True anomaly
273.46754°
Mean anomaly
273.4848°
Eccentric anomaly
273.47617°
Mean motion
3.82527 °/min
Orbital period
94.11 mins
BSTAR
0.00013083
Loading maneuver chart data...
Computing Atmospheric mass density...
Loading historical data...
Loading historical data...
Loading historical data...
Loading historical data...
Loading historical data...
Loading historical data...
Loading historical data...

Documentation

Showing up to 5 results
|